Вернуться в каталог

COSMOS 1818 COOLANT

LostLEO
NORAD 36951·DEBRIS·🇷🇺 Russia

Запущен Feb 1, 1987 с Baikonur Cosmodrome

Loading…

Ближайшие Пролёты (ближайшие 24 часа)

TLE

УстаревшееSource: Space-Track

Эпоха: May 15, 2016, 09:21 UTC

1 36951U 87011AF  16136.38961746 +.00000217 +00000-0 +11491-3 0  9991
2 36951 064.9952 119.0963 0020734 232.9739 127.0624 14.33348672085366

Отслеживайте COSMOS 1818 COOLANT в реальном времени с AllMySat

Download on the App Store